GW0245 Weather Reports


Display with metric or nautical units.
time (UTC)temp
F
wind
direction
speed
MPH
gust
MPH
rain 1hr
in
rain 24hr
in
rain mn
in
humidity
%
barometer
mb
20260506110054 46 259 0.0 4.0 0.00 0.00 0.00 53 1015.7
20260506104614 45 209 2.0 4.0 0.00 0.00 0.00 56 1015.6
20260506103055 44 0 0.0 3.0 0.00 0.00 0.00 56 1015.6
20260506101557 44 248 0.0 2.0 0.00 0.00 0.00 56 1015.4
20260506100054 46 0 0.0 2.0 0.00 0.00 0.00 54 1015.4
20260506094553 47 259 0.0 2.0 0.00 0.00 0.00 51 1015.2
20260506093055 49 0 0.0 0.0 0.00 0.00 0.00 50 1015.2
20260506091556 49 215 0.0 3.0 0.00 0.00 0.00 50 1015.0
20260506090055 49 0 0.0 4.0 0.00 0.00 0.00 50 1015.0
20260506084555 48 225 0.0 4.0 0.00 0.00 0.00 51 1014.9
20260506083055 50 0 1.0 2.0 0.00 0.00 0.00 49 1014.8
20260506081600 51 0 0.0 2.0 0.00 0.00 0.00 47 1014.7
20260506080104 51 0 1.0 4.0 0.00 0.00 0.00 45 1014.7
20260506073057 52 227 1.0 4.0 0.00 0.00 0.00 46 1014.7
20260506071617 51 242 2.0 5.0 0.00 0.00 0.00 47 1014.7
20260506061556 52 0 0.0 1.0 0.00 0.00 0.00 44 1014.3
20260506044610 59 263 7.0 15.0 0.00 0.00 0.00 33 1013.7
20260506043059 59 243 6.0 17.0 0.00 0.00 0.00 33 1013.5
20260506041556 59 240 6.0 16.0 0.00 0.00 0.00 33 1013.4
20260506040059 59 227 6.0 12.0 0.00 0.00 0.00 33 1013.1
20260506034600 59 264 8.0 14.0 0.00 0.00 0.00 33 1012.8
20260506033055 60 265 9.0 15.0 0.00 0.00 0.00 33 1012.7
20260506031557 60 231 8.0 18.0 0.00 0.00 0.00 33 1012.4
20260506030056 60 259 12.0 20.0 0.00 0.00 0.00 33 1012.0
20260506024555 60 271 9.0 15.0 0.00 0.00 0.00 33 1011.6
20260506023058 61 286 9.0 20.0 0.00 0.00 0.00 32 1011.4
20260506021558 61 0 5.0 12.0 0.00 0.00 0.00 31 1011.2
20260506020055 62 257 1.0 12.0 0.00 0.00 0.00 30 1010.9
20260506014556 63 268 6.0 11.0 0.00 0.00 0.00 30 1010.8
20260506013055 64 184 4.0 15.0 0.00 0.00 0.00 28 1010.4
20260506011556 65 142 4.0 11.0 0.00 0.00 0.00 28 1010.2
20260506010058 65 168 3.0 13.0 0.00 0.00 0.00 29 1010.0
20260506004554 64 152 5.0 10.0 0.00 0.00 0.00 31 1010.0
20260506003112 65 183 2.0 9.0 0.00 0.00 0.00 26 1010.0
20260506001611 67 171 3.0 19.0 0.00 0.00 0.00 24 1009.6
20260506000058 67 202 4.0 16.0 0.00 0.00 0.00 26 1009.5
20260505234611 66 170 5.0 14.0 0.00 0.00 0.00 25 1009.4
20260505233057 66 194 2.0 16.0 0.00 0.00 0.00 24 1009.3
20260505231557 68 246 4.0 14.0 0.00 0.00 0.00 23 1009.1
20260505230058 66 261 3.0 16.0 0.00 0.00 0.00 25 1009.2
20260505224554 68 157 6.0 15.0 0.00 0.00 0.00 24 1009.2
20260505223108 67 214 9.0 22.0 0.00 0.00 0.00 28 1009.2
20260505221557 67 127 9.0 20.0 0.00 0.00 0.00 27 1009.3
20260505220100 66 147 10.0 15.0 0.00 0.00 0.00 32 1009.3
20260505214602 65 165 5.0 13.0 0.00 0.00 0.00 34 1009.6
20260505213055 65 148 3.0 15.0 0.00 0.00 0.00 40 1010.0
20260505211617 67 161 7.0 21.0 0.00 0.00 0.00 32 1009.7
20260505210056 67 144 9.0 20.0 0.00 0.00 0.00 31 1010.2
20260505204556 67 158 5.0 23.0 0.00 0.00 0.00 34 1010.4
20260505203121 70 195 7.0 14.0 0.00 0.00 0.00 30 1010.5
20260505201555 69 156 10.0 19.0 0.00 0.00 0.00 29 1010.3
20260505200055 67 189 6.0 19.0 0.00 0.00 0.00 33 1010.5
20260505194558 69 158 8.0 17.0 0.00 0.00 0.00 31 1010.6
20260505193054 69 145 6.0 22.0 0.00 0.00 0.00 30 1010.6
20260505191556 69 103 8.0 19.0 0.00 0.00 0.00 32 1010.9
20260505190056 68 152 7.0 18.0 0.00 0.00 0.00 31 1010.7
20260505184555 67 194 7.0 16.0 0.00 0.00 0.00 35 1011.1
20260505183054 65 149 7.0 18.0 0.00 0.00 0.00 37 1011.3
20260505181552 65 129 7.0 16.0 0.00 0.00 0.00 36 1011.3
20260505174556 68 117 8.0 17.0 0.00 0.00 0.00 38 1011.2
20260505173056 67 113 8.0 16.0 0.00 0.00 0.00 36 1011.0
20260505171558 67 132 7.0 13.0 0.00 0.00 0.00 37 1011.2
20260505170055 67 144 3.0 14.0 0.00 0.00 0.00 33 1011.1
20260505164556 65 189 4.0 12.0 0.00 0.00 0.00 35 1011.2
20260505163055 60 174 6.0 16.0 0.00 0.00 0.00 46 1011.4
20260505161555 64 96 4.0 14.0 0.00 0.00 0.00 41 1011.6
20260505153057 63 185 6.0 16.0 0.00 0.00 0.00 44 1011.8
20260505151553 61 146 4.0 15.0 0.00 0.00 0.00 48 1011.8
20260505140109 56 198 0.0 4.0 0.00 0.00 0.00 49 1012.2
20260505124554 53 0 0.0 3.0 0.00 0.00 0.00 52 1011.6
20260505123059 53 0 0.0 4.0 0.00 0.00 0.00 54 1011.3
20260505121555 54 0 0.0 3.0 0.00 0.00 0.00 53 1011.3
20260505120112 54 0 0.0 1.0 0.00 0.00 0.00 55 1011.3
20260505114558 54 0 0.0 1.0 0.00 0.00 0.00 54 1011.4
20260505113104 55 0 0.0 1.0 0.00 0.00 0.00 52 1011.5
20260505111559 56 0 0.0 0.0 0.00 0.00 0.00 51 1011.6